Preview of NWS' New Version of Forecast
This preview is not operational and should not be used for support decisions.
Latest weather observations around

Cloquet Carlton County Airport (KCOQ)

Using English Units (Switch to International System of Units)
Date/ Time (CDT) Wind (mph) Vis. (mi) Weather Sky Cond. Temp (°F) Rel. Humidity Wind Chill (°F) Heat Index (°F) Pressure Precip. (in)
Air Dwpt 6 hour Altimeter (inHg) Sea level (inHg) 1 hr 3 hr 6 hr
Max Min
Sep 23 14:55 WSW 14 10 Clear CLR 72 43     35%   70 29.91        
Sep 23 14:35 W 13 10 Clear CLR 72 41     33%   70 29.92        
Sep 23 14:16 W 13 10 Clear CLR 72 39     31%   70 29.92        
Sep 23 14:15 W 9 10 Clear CLR 72 41     33%   70 29.92        
Sep 23 13:56 W 8 3 Haze CLR 70 41     35%     29.93        
Sep 23 13:55 W 8 3 Haze CLR 70 43     38%     29.93        
Sep 23 13:35 WNW 10 10 Partly Cloudy SCT050 70 45     40%     29.93        
Sep 23 13:15 W 11 10 Partly Cloudy SCT050 70 46     43%     29.93        
Sep 23 12:55 SW 9 10 Mostly Cloudy BKN048 70 45     40%     29.93        
Sep 23 12:36 WSW 7 10 Partly Cloudy SCT048 70 46     43%     29.94        
Sep 23 12:35 SW 8 10 Partly Cloudy SCT048 70 46     43%     29.94        
Sep 23 12:15 W 6 10 Clear CLR 68 46     46%     29.94        
Sep 23 11:55 WSW 6 10 Clear CLR 68 45     43%     29.94        
Sep 23 11:35 W 5 10 Clear CLR 66 45     46%     29.94        
Sep 23 11:15 W 3 10 Clear CLR 66 46     49%     29.94        
Sep 23 10:56 W 5 10 Clear CLR 64 48     56%     29.94        
Sep 23 10:55 W 3 10 Clear CLR 64 46     52%     29.94        
Sep 23 10:35 WSW 5 10 Clear CLR 64 48     56%     29.94        
Sep 23 10:15 W 5 10 Clear CLR 63 48     59%     29.94        
Sep 23 09:55 W 6 10 Clear CLR 61 48     63%     29.93        
Sep 23 09:36 W 5 10 Clear CLR 59 50     72%     29.93        
Sep 23 09:35 WSW 5 10 Clear CLR 59 50     72%     29.93        
Sep 23 09:16 SW 3 10 Partly Cloudy SCT055 57 52     82%     29.93        
Sep 23 09:15 SW 3 10 Partly Cloudy SCT055 57 52     82%     29.93        
Sep 23 08:55 Calm 10 Partly Cloudy SCT055 55 50     82%     29.93        
Sep 23 08:35 Calm 10 Clear CLR 54 50     88%     29.92        
Sep 23 08:16 Calm 10 Clear CLR 52 48     87%     29.92        
Sep 23 08:15 Calm 10 Clear CLR 50 48     94%     29.92        
Sep 23 07:56 Calm 10 Clear CLR 48 46     93%     29.91        
Sep 23 07:55 Calm 10 Clear CLR 48 46     93%     29.91        
Sep 23 07:36 Calm 7 Clear CLR 48 46     93%     29.91        
Sep 23 07:35 Calm 7 Clear CLR 48 46     93%     29.91        
Sep 23 07:15 Calm 10 Clear CLR 50 46     87%     29.91        
Sep 23 06:55 Calm 10 Clear CLR 50 46     87%     29.9        
Sep 23 06:35 W 3 10 Clear CLR 52 48     87%     29.9        
Sep 23 06:15 W 5 10 Clear CLR 52 48     87%     29.9        
Sep 23 05:55 W 6 10 Clear CLR 52 48     87%     29.89        
Sep 23 05:35 W 6 10 Clear CLR 52 48     87%     29.89        
Sep 23 05:16 W 5 10 Clear CLR 52 48     87%     29.89        
Sep 23 05:15 W 5 10 Clear CLR 52 48     87%     29.89        
Sep 23 04:55 W 6 10 Clear CLR 52 48     87%     29.89        
Sep 23 04:35 W 3 10 Clear CLR 52 48     87%     29.89        
Sep 23 04:15 W 3 10 Clear CLR 52 48     87%     29.89        
Sep 23 03:56 Calm 10 Clear CLR 54 48     82%     29.88        
Sep 23 03:55 Calm 10 Clear CLR 54 48     82%     29.88        
Sep 23 03:36 Calm 10 Partly Cloudy SCT090 54 50     88%     29.88        
Sep 23 03:35 Calm 10 Partly Cloudy SCT090 54 50     88%     29.88        
Sep 23 03:16 Calm 10 Cloudy SCT070 SCT075 OVC090 54 50     88%     29.88        
Sep 23 03:15 Calm 10 Cloudy SCT070 SCT075 OVC090 54 50     88%     29.88        
Sep 23 02:55 Calm 10 Cloudy SCT050 OVC070 54 50     88%     29.88        
Sep 23 02:36 Calm 10 Light Rain SCT045 BKN070 OVC075 54 50     88%     29.88        
Sep 23 02:35 NNE 3 10 Light Rain SCT045 BKN070 OVC090 54 50     88%     29.88        
Sep 23 02:15 W 5 10 Cloudy SCT045 BKN070 OVC090 54 50     88%     29.88        
Sep 23 01:55 Calm 10 Cloudy SCT039 BKN055 OVC085 54 50     88%     29.88        
Sep 23 01:36 S 3 10 Cloudy SCT039 BKN065 OVC075 54 50     88%     29.88        
Sep 23 01:35 S 5 10 Cloudy SCT039 BKN065 OVC075 54 50     88%     29.88        
Sep 23 01:15 Calm 10 Cloudy SCT065 OVC075 55 50     82%     29.88        
Sep 23 00:56 W 5 10 Cloudy BKN065 OVC085 55 50     82%     29.87        
Sep 23 00:55 W 5 10 Cloudy BKN065 OVC085 55 50     82%     29.87        
Sep 23 00:35 W 3 10 Cloudy OVC065 54 50     88%     29.87        
Sep 23 00:16 W 5 10 Cloudy OVC065 54 50     88%     29.87        
Sep 23 00:15 W 5 10 Cloudy OVC065 54 50     88%     29.87        
Sep 22 23:56 W 3 10 Partly Cloudy SCT065 54 50     88%     29.87        
Sep 22 23:55 W 3 10 Partly Cloudy SCT065 54 50     88%     29.87        
Sep 22 23:35 Calm 10 Clear CLR 54 48     82%     29.87        
Sep 22 23:16 Calm 10 Clear CLR 54 48     82%     29.87        
Sep 22 23:15 Calm 10 Clear CLR 54 50     88%     29.87        
Sep 22 22:56 Calm 10 Clear CLR 54 50     88%     29.87        
Sep 22 22:55 Calm 10 Clear CLR 54 50     88%     29.87        
Sep 22 22:36 WSW 3 10 Clear CLR 55 50     82%     29.86        
Sep 22 22:35 WSW 3 10 Clear CLR 55 50     82%     29.86        
Sep 22 22:16 W 5 10 Clear CLR 55 50     82%     29.86        
Sep 22 22:15 WSW 3 10 Clear CLR 55 50     82%     29.86        
Sep 22 21:55 W 5 10 Clear CLR 55 50     82%     29.86        
Sep 22 21:35 W 3 10 Clear CLR 55 50     82%     29.86        
Sep 22 21:15 W 3 10 Clear CLR 55 50     82%     29.86        
Sep 22 20:55 W 6 10 Partly Cloudy SCT065 55 50     82%     29.86        
Sep 22 20:35 SW 5 10 Clear   55 50     82%     29.87        
Sep 22 20:15 SW 3 10 Clear   55 50     82%     29.86        
Sep 22 19:55 SW 3 10 Clear   55 50     82%     29.86        
Sep 22 19:35 WSW 5 10 Clear CLR 55 50     82%     29.85        
Sep 22 19:16 WSW 3 10 Partly Cloudy SCT048 55 50     82%     29.84        
Sep 22 19:15 WSW 3 10 Partly Cloudy SCT048 55 50     82%     29.84        
Sep 22 18:55 WSW 5 10 Partly Cloudy SCT048 57 52     82%     29.84        
Sep 22 18:35 WSW 3 10 Partly Cloudy SCT045 57 50     77%     29.85        
Sep 22 18:15 SW 5 10 Clear CLR 57 50     77%     29.85        
Sep 22 17:56 Calm 10 Partly Cloudy SCT038 57 50     77%     29.85        
Sep 22 17:55 Calm 10 Partly Cloudy SCT038 57 50     77%     29.85        
Sep 22 17:36 Calm 10 Cloudy OVC038 57 52     82%     29.84        
Sep 22 17:35 Calm 10 Cloudy OVC038 57 50     77%     29.84        
Sep 22 17:16 Calm 10 Cloudy OVC036 59 48     67%     29.84        
Sep 22 17:15 Calm 10 Cloudy OVC036 59 48     67%     29.84        
Sep 22 16:56 Calm 10 Cloudy OVC034 57 48     72%     29.84        
Sep 22 16:55 Calm 10 Cloudy OVC034 57 48     72%     29.84        
Sep 22 16:35 W 5 10 Cloudy SCT028 OVC034 59 48     67%     29.84        
Sep 22 16:16 W 3 10 Cloudy OVC030 59 48     67%     29.84        
Sep 22 16:15 W 3 10 Cloudy OVC030 59 48     67%     29.84        
Sep 22 15:56 W 7 10 Cloudy OVC031 59 48     67%     29.84        
Sep 22 15:55 W 8 10 Cloudy OVC031 59 46     63%     29.84        
Sep 22 15:35 W 6 10 Cloudy OVC031 59 48     67%     29.83        
Sep 22 15:15 W 9 10 Cloudy OVC031 61 48     63%     29.83        
Sep 22 14:55 WNW 8 10 Cloudy OVC029 59 46     63%     29.84        
Sep 22 14:35 WNW 8 10 Cloudy OVC029 59 48     67%     29.83        
Sep 22 14:16 NW 6 10 Cloudy OVC027 59 48     67%     29.82        
Sep 22 14:15 NW 6 10 Cloudy OVC027 59 48     67%     29.82        
Sep 22 13:55 W 8 10 Cloudy OVC027 59 48     67%     29.82        
Sep 22 13:35 W 6 10 Cloudy OVC027 57 48     72%     29.84        
Sep 22 13:15 W 5 10 Cloudy BKN023 OVC029 57 48     72%     29.84        
Sep 22 12:55 W 7 10 Cloudy OVC023 57 48     72%     29.84        
Sep 22 12:36 W 8 10 Cloudy OVC021 57 46     67%     29.84        
Sep 22 12:35 W 9 10 Cloudy OVC021 57 48     72%     29.84        
Sep 22 12:16 W 11 10 Cloudy OVC021 57 46     67%     29.85        
Sep 22 12:15 W 11 10 Cloudy OVC021 57 46     67%     29.85        
Sep 22 11:56 W 7 10 Cloudy OVC021 57 46     67%     29.86        
Sep 22 11:55 W 8 10 Cloudy OVC021 57 46     67%     29.86        
Sep 22 11:35 W 7 10 Cloudy OVC021 57 46     67%     29.85        
Sep 22 11:15 W 10 10 Cloudy OVC021 57 48     72%     29.85        
Sep 22 10:56 W 9 10 Cloudy OVC023 57 48     72%     29.85        
Sep 22 10:55 W 11 10 Cloudy OVC023 57 48     72%     29.85        
Sep 22 10:36 W 9 10 Cloudy OVC023 57 48     72%     29.85        
Sep 22 10:35 W 9 10 Cloudy OVC023 57 48     72%     29.85        
Sep 22 10:15 NW 14 10 Mostly Cloudy BKN023 59 48     67%     29.83        
Sep 22 09:55 WNW 11 10 Partly Cloudy SCT023 59 48     67%     29.83        
Sep 22 09:35 W 14 10 Partly Cloudy SCT021 57 48     72%     29.83        
Sep 22 09:15 WNW 11 10 Clear CLR 57 48     72%     29.82        
Sep 22 08:56 WNW 9 10 Partly Cloudy SCT021 57 50     77%     29.82        
Sep 22 08:55 W 8 10 Partly Cloudy SCT021 57 50     77%     29.83        
Sep 22 08:35 W 8 10 Mostly Cloudy BKN021 55 50     82%     29.82        
Sep 22 08:16 W 5 10 Partly Cloudy SCT021 54 50     88%     29.82        
Sep 22 08:15 W 5 10 Partly Cloudy SCT021 54 50     88%     29.82        
Sep 22 07:55 W 6 10 Clear CLR 54 50     88%     29.81        
Sep 22 07:36 W 6 10 Partly Cloudy SCT015 55 50     82%     29.81        
Sep 22 07:35 W 6 10 Partly Cloudy SCT017 55 50     82%     29.81        
Sep 22 07:16 W 7 10 Mostly Cloudy BKN017 55 52     88%     29.81        
Sep 22 07:15 W 6 10 Mostly Cloudy BKN017 55 52     88%     29.81        
Sep 22 06:56 W 9 10 Clear CLR 55 52     88%     29.8        
Sep 22 06:55 W 9 10 Clear CLR 55 52     88%     29.8        
Sep 22 06:36 W 8 10 Clear CLR 55 52     88%     29.8        
Sep 22 06:35 W 8 10 Clear CLR 55 52     88%     29.8        
Sep 22 06:15 W 9 10 Clear CLR 57 52     82%     29.8        
Sep 22 05:56 W 9 10 Clear CLR 57 52     82%     29.79        
Sep 22 05:55 W 8 10 Clear CLR 57 52     82%     29.79        
Sep 22 05:35 WSW 3 10 Clear CLR 57 54     88%     29.79        
Sep 22 05:15 SW 6 10 Clear CLR 57 54     88%     29.79        
Sep 22 04:55 W 6 10 Clear CLR 57 54     88%     29.78        
Sep 22 04:35 W 7 10 Clear CLR 57 54     88%     29.79        
Sep 22 04:16 WSW 5 10 Clear CLR 59 54     82%     29.79        
Sep 22 04:15 WSW 5 10 Clear CLR 59 54     82%     29.79        
Sep 22 03:55 WSW 5 10 Clear CLR 59 54     82%     29.79        
Sep 22 03:35 WSW 8 10 Clear CLR 61 55     82%     29.78        
Sep 22 03:15 W 8 10 Clear CLR 61 55     82%     29.77        
Sep 22 02:55 WSW 9 10 Clear CLR 61 55     82%     29.77        
Sep 22 02:36 WSW 8 10 Clear CLR 61 57     88%     29.76        
Sep 22 02:35 WSW 7 10 Clear CLR 61 57     88%     29.76        
Sep 22 02:16 WSW 9 10 Clear CLR 63 57     83%     29.76        
Sep 22 02:15 WSW 9 10 Clear CLR 63 57     83%     29.76        
Sep 22 01:55 WSW 11 10 Clear CLR 63 57     83%     29.76        
Sep 22 01:36 WSW 8 10 Clear CLR 63 57     83%     29.76        
Sep 22 01:35 WSW 9 10 Clear CLR 63 57     83%     29.76        
Sep 22 01:15 SW 7 10 Clear CLR 63 57     83%     29.76        
Sep 22 00:56 SW 7 10 Clear CLR 63 59     88%     29.76        
Sep 22 00:55 SW 7 10 Clear CLR 63 59     88%     29.76        
Sep 22 00:36 SW 7 10 Clear CLR 63 59     88%     29.77        
Sep 22 00:35 SSW 7 10 Clear CLR 63 59     88%     29.77        
Sep 22 00:15 SSW 8 10 Clear CLR 63 61     94%     29.76        
Sep 21 23:55 SSW 8 10 Clear CLR 63 61     94%     29.75        
Sep 21 23:35 SSW 7 10 Clear CLR 63 61     94%     29.74        
Sep 21 23:15 SSW 7 10 Clear CLR 63 61     94%     29.74        
Sep 21 22:55 SSW 5 10 Clear CLR 63 61     94%     29.74        
Sep 21 22:35 SSW 6 10 Clear CLR 64 61     88%     29.74        
Sep 21 22:16 SSW 7 10 Clear CLR 63 61     94%     29.74        
Sep 21 22:15 SSW 6 10 Clear CLR 63 61     94%     29.74        
Sep 21 21:55 SSW 7 10 Clear CLR 64 61     88%     29.74        
Sep 21 21:35 SSW 6 10 Clear CLR 64 61     88%     29.73        
Sep 21 21:16 SSW 7 10 Clear CLR 64 61     88%     29.73        
Sep 21 21:15 SSW 7 10 Clear CLR 64 61     88%     29.73        
Sep 21 20:55 SSW 7 10 Clear CLR 64 61     88%     29.73        
Sep 21 20:36 S 6 10 Clear CLR 64 63     94%     29.72        
Sep 21 20:35 S 6 10 Clear CLR 64 63     94%     29.72        
Sep 21 20:15 SE 6 10 Clear CLR 66 63     88%     29.71        
Sep 21 19:56 SW 8 10 Clear CLR 68 63     83%     29.7        
Sep 21 19:55 SW 9 10 Clear CLR 68 63     83%     29.7        
Sep 21 19:35 WSW 6 10 Clear CLR 68 63     83%     29.69        
Sep 21 19:15 SW 6 10 Clear CLR 66 61     83%     29.68        
Sep 21 18:55 SSW 5 10 Clear CLR 68 61     78%     29.68        
Sep 21 18:35 SSW 8 10 Clear CLR 72 63     73%   72 29.69        
Sep 21 18:15 SW 8 10 Partly Cloudy SCT011 SCT019 72 64     78%   72 29.68        
Sep 21 17:55 SSW 3 10 Thunderstorms and Rain SCT015 BKN021 BKN026 72 68     88%   73 29.7        
Sep 21 17:35 S 6 10 Thunderstorms and Rain SCT015 SCT027 BKN040 72 68     88%   73 29.7        
Sep 21 17:16 S 6 10 Mostly Cloudy SCT015 SCT021 BKN031 72 68     88%   73 29.69        
Sep 21 17:15 SSE 6 10 Mostly Cloudy SCT015 SCT021 BKN031 72 68     88%   73 29.69        
Sep 21 16:55 S 6 10 Cloudy BKN014 BKN020 OVC028 72 68     88%   73 29.7        
Sep 21 16:36 S 8 10 Cloudy OVC014 72 68     88%   73 29.7        
Sep 21 16:35 S 8 10 Cloudy OVC014 72 68     88%   73 29.7        
Sep 21 16:16 S 8 10 Cloudy SCT009 BKN012 OVC022 73 68     83%   74 29.7        
Sep 21 16:15 S 8 10 Cloudy BKN012 BKN017 OVC022 73 68     83%   74 29.69        
Sep 21 15:56 S 9 10 Cloudy OVC010 72 68     88%   73 29.69        
Sep 21 15:55 S 10 10 Cloudy OVC010 72 68     88%   73 29.69        
Sep 21 15:35 S 10 7 Cloudy OVC010 72 68     88%   73 29.69        
Sep 21 15:16 S 8 10 Cloudy OVC010 72 68     88%   73 29.71        
Sep 21 15:15 S 9 10 Cloudy OVC010 72 68     88%   73 29.7        
Sep 21 14:55 S 11 10 Cloudy OVC010 72 66     83%   72 29.71        
Sep 21 14:35 S 8 10 Cloudy OVC010 72 66     83%   72 29.72        
Sep 21 14:16 S 7 10 Cloudy OVC013 70 66     88%     29.72        
Sep 21 14:15 S 6 10 Cloudy OVC013 70 66     88%     29.72        
Sep 21 13:55 S 9 10 Cloudy BKN013 OVC018 70 66     88%     29.73        
Sep 21 13:35 S 15 10 Mostly Cloudy BKN015 BKN042 68 66     94%     29.74        
Sep 21 13:16 S 7 10 Partly Cloudy SCT017 SCT042 70 66     88%     29.75        
Sep 21 13:15 S 7 10 Partly Cloudy SCT017 70 66     88%     29.75        
Sep 21 12:55 S 7 7 Clear CLR 68 64     88%     29.76   0    
Sep 21 12:36 S 6 7 Partly Cloudy SCT014 66 64     94%     29.75   0    
Sep 21 12:35 S 7 7 Partly Cloudy SCT014 66 64     94%     29.75   0    
Sep 21 12:15 S 8 10 Thunderstorms and Rain SCT039 SCT050 BKN065 64 63     94%     29.74   0    
Sep 21 11:56 E 3 10 Thunderstorms and Rain SCT033 SCT050 BKN065 64 61     88%     29.74        
Sep 21 11:55 E 5 10 Thunderstorms and Rain SCT036 SCT050 BKN065 64 61     88%     29.75   0    
Sep 21 11:35 S 9 10 Thunderstorms and Rain SCT005 BKN042 OVC090 64 61     88%     29.78   0    
Sep 21 11:15 SSE 17 4 Thunderstorms and Heavy Rain BKN005 BKN011 OVC034 68 66     94%     29.77   0    
Sep 21 10:56 SSE 7 4 Thunderstorms and Rain OVC003 66 64     94%     29.78        
Sep 21 10:55 SSE 6 4 Thunderstorms and Rain OVC003 66 64     94%     29.78   0    
Sep 21 10:35 SSE 3 4 Cloudy OVC001 66 64     94%     29.79   0    
Sep 21 10:16 SSE 5 1.75 Heavy Drizzle OVC001 64 63     94%     29.8   0    
Sep 21 10:15 SSE 5 1.75 Heavy Drizzle OVC001 64 61     88%     29.8   0    
Sep 21 09:56 Calm 1.25 Drizzle OVC001 63 61     94%     29.8        
Sep 21 09:55 Calm 1.25 Drizzle OVC001 63 61     94%     29.79   0    
Sep 21 09:35 Calm 1 Drizzle OVC001 63 59     88%     29.78        
Sep 21 09:15 Calm 0.5 Rain OVC001 61 59     94%     29.77        
Sep 21 08:55 ESE 3 1.75 Light Rain BKN001 OVC010 61 59     94%     29.79   0    
Sep 21 08:36 SSE 6 2 Heavy Rain BKN001 OVC009 61 57     88%     29.8   0    
Sep 21 08:35 SSE 6 2 Heavy Rain BKN001 OVC009 61 57     88%     29.8   0    
Sep 21 08:15 ESE 5 1 Rain BKN001 OVC016 59 55     88%     29.79        
Sep 21 07:55 SE 3 0.75 Drizzle BKN001 OVC014 57 55     94%     29.8        
Sep 21 07:36 ESE 3 0.25 Light Drizzle OVC001 57 55     94%     29.8        
Sep 21 07:35 ESE 3 0.25 Light Drizzle OVC001 57 55     94%     29.8        
Sep 21 07:15 ESE 6 0.25 Fog OVC001 57 55     94%     29.8        
Sep 21 06:55 ESE 6 0.25 Fog OVC001 57 55     94%     29.81        
Sep 21 06:36 ESE 6 0.25 Fog OVC001 57 55     94%     29.82        
Sep 21 06:35 ESE 5 0.25 Fog OVC001 57 55     94%     29.82        
Sep 21 06:15 ESE 3 0.25 Fog OVC001 57 55     94%     29.83        
Sep 21 05:56 ESE 5 0.25 Fog OVC001 57 55     94%     29.84        
Sep 21 05:55 ESE 5 0.25 Fog OVC001 57 55     94%     29.84        
Sep 21 05:36 ESE 5 0.25 Fog OVC001 57 55     94%     29.84        
Sep 21 05:35 ESE 5 0.25 Fog OVC001 57 55     94%     29.84        
Sep 21 05:16 Calm 0.25 Fog OVC001 57 55     94%     29.84        
Sep 21 05:15 Calm 0.25 Fog OVC001 57 55     94%     29.84        
Sep 21 04:55 ESE 5 0.25 Fog OVC001 55 54     94%     29.84        
Sep 21 04:35 E 5 0.25 Fog OVC001 55 54     94%     29.85        
Sep 21 04:16 ESE 6 0.25 Fog OVC001 55 54     94%     29.86        
Sep 21 04:15 ESE 6 0.25 Fog OVC001 55 54     94%     29.86        
Sep 21 03:55 ESE 5 0.25 Fog OVC001 55 54     94%     29.88        
Sep 21 03:35 ESE 6 0.25 Fog OVC001 55 54     94%     29.88        
Sep 21 03:15 ESE 3 0.25 Fog OVC001 55 54     94%     29.89        
Sep 21 02:55 ESE 6 0.25 Fog OVC001 55 54     94%     29.9        
Sep 21 02:36 ESE 6 0.25 Fog OVC001 55 54     94%     29.91        
Sep 21 02:35 ESE 6 0.25 Fog OVC001 55 54     94%     29.91        
Sep 21 02:15 ESE 6 0.25 Fog OVC001 55 54     94%     29.91        
Sep 21 01:56 E 6 0.25 Fog OVC001 55 54     94%     29.92        
Sep 21 01:55 ESE 6 0.25 Fog OVC001 55 54     94%     29.92        
Sep 21 01:36 ESE 7 0.25 Fog OVC001 55 54     94%     29.93        
Sep 21 01:35 ESE 6 0.25 Fog OVC001 55 54     94%     29.93        
Sep 21 01:15 ESE 6 0.25 Fog OVC001 55 54     94%     29.94        
Sep 21 00:55 ESE 6 0.25 Fog OVC001 55 54     94%     29.94        
Sep 21 00:36 ESE 6 0.25 Fog OVC001 55 54     94%     29.95        
Sep 21 00:35 E 7 0.25 Fog OVC001 55 54     94%     29.94        
Sep 21 00:15 ESE 6 0.25 Fog OVC001 55 54     94%     29.95        
Sep 20 23:56 E 6 0.25 Fog OVC001 55 54     94%     29.95        
Sep 20 23:55 E 6 0.25 Fog OVC001 55 54     94%     29.95        
Sep 20 23:35 E 6 0.25 Fog OVC001 55 54     94%     29.95        
Sep 20 23:16 E 7 0.25 Fog OVC001 55 54     94%     29.96        
Sep 20 23:15 ESE 6 0.25 Fog OVC001 55 54     94%     29.96        
Sep 20 22:56 E 5 0.25 Fog OVC001 55 54     94%     29.96        
Sep 20 22:55 E 6 0.25 Fog OVC001 55 54     94%     29.96        
Sep 20 22:36 ESE 6 0.25 Fog OVC001 55 54     94%     29.96        
Sep 20 22:35 E 6 0.25 Fog OVC001 55 54     94%     29.96        
Sep 20 22:15 ESE 6 0.25 Fog OVC001 55 54     94%     29.96        
Sep 20 21:55 E 8 0.25 Fog OVC001 55 54     94%     29.97        
Sep 20 21:36 E 9 0.5 Fog OVC001 55 54     94%     29.97        
Sep 20 21:35 E 8 0.5 Fog OVC001 55 54     94%     29.98        
Sep 20 21:16 E 8 0.5 Fog OVC001 55 54     94%     29.99        
Sep 20 21:15 E 9 0.5 Fog OVC001 55 54     94%     29.98        
Sep 20 20:55 E 8 0.25 Fog OVC001 57 54     88%     29.99        
Sep 20 20:35 E 8 0.25 Fog OVC001 57 55     94%     30        
Sep 20 20:15 E 9 0.5 Fog OVC001 57 55     94%     29.99        
Sep 20 19:55 E 8 0.5 Fog OVC001 57 55     94%     30        
Sep 20 19:35 E 7 0.75 Clear   57 55     94%     30        
Sep 20 19:15 E 8 1.25 Clear   57 55     94%     30.01        
Sep 20 18:55 E 6 2.5 Clear   57 55     94%     30.02        
Sep 20 18:35 E 5 2 Fog/Mist OVC003 57 55     94%     30.02        
Sep 20 18:15 E 10 1 Fog/Mist OVC003 57 55     94%     30.02        
Sep 20 17:55 E 3 3 Fog/Mist OVC003 57 55     94%     30.02        
Sep 20 17:36 E 9 5 Clear   57 55     94%     30.02        
Sep 20 17:35 E 9 5 Clear   57 55     94%     30.02        
Sep 20 17:15 E 8 7 Clear   59 55     88%     30.03        
Sep 20 16:56 E 10 10 Clear   59 55     88%     30.03        
Sep 20 16:55 E 9 10 Clear   59 55     88%     30.03        
Sep 20 16:35 E 8 10 Cloudy OVC003 59 55     88%     30.03        
Sep 20 16:16 E 10 4 Fog/Mist OVC003 59 55     88%     30.04        
Sep 20 16:15 E 11 4 Fog/Mist OVC003 59 55     88%     30.04        
Sep 20 15:56 E 10 10 Cloudy OVC005 61 57     88%     30.04        
Sep 20 15:55 E 10 10 Cloudy OVC005 61 57     88%     30.04        
Sep 20 15:35 E 10 10 Cloudy OVC005 63 57     83%     30.04        
Sep 20 15:15 E 11 10 Cloudy OVC005 63 57     83%     30.05        
Sep 20 14:55 ESE 9 7 Mostly Cloudy BKN005 63 57     83%     30.04        
Sep 20 14:35 ESE 8 10 Partly Cloudy SCT007 64 59     83%     30.04        
Sep 20 14:16 ESE 8 10 Mostly Cloudy BKN005 64 61     88%     30.05        
Sep 20 14:15 ESE 9 10 Mostly Cloudy BKN005 64 61     88%     30.05        
Sep 20 13:55 ESE 8 10 Cloudy OVC005 64 59     83%     30.06        
Sep 20 13:36 ESE 8 7 Cloudy OVC005 64 59     83%     30.06        
Sep 20 13:35 ESE 8 7 Cloudy OVC005 64 61     88%     30.07        
Sep 20 13:16 E 7 10 Cloudy OVC005 63 59     88%     30.08        
Sep 20 13:15 ENE 8 10 Cloudy OVC005 63 59     88%     30.08        
Sep 20 12:55 E 6 10 Cloudy OVC005 63 59     88%     30.08        
Sep 20 12:35 E 7 5 Fog/Mist OVC003 61 57     88%     30.08        
Sep 20 12:16 ESE 9 7 Cloudy OVC003 61 57     88%     30.07        
May 15 12:55 ESE 10 5 Haze CLR 57 28     33%     30.09        
May 15 10:15 ESE 9 5 Haze CLR 54 30     41%     30.1        
May 15 04:15 NW 3 10 Clear   48 25     40% 47   30.03        
May 15 01:15 N 11 10 Clear CLR 59 25     27%     29.95        
May 15 00:15 N 6 10 Clear CLR 61 27     27%     29.93        
May 14 22:55 NNW 7 10 Clear CLR 63 30     29%     29.9        
May 14 20:35 WNW 3 10 Clear CLR 68 48     49%              
May 14 20:15 W 6 10 Clear CLR 70 48     46%     29.84        
Notice The following observation data may not be complete
May 14 18:35   10 Mostly Cloudy BKN100          %              
May 14 12:15 W 8 10 Partly Cloudy SCT065 77 41     28%   76 29.86        
May 14 05:55 W 6 10 Clear CLR 55 41     58%     29.87        
May 13 17:15 W 14 10 Clear CLR 73        %     29.88        
May 13 12:55 W 7 10 Clear CLR 68        %     29.96        
May 13 07:55 W 3 10 Clear CLR 48 30     50% 47   30.04        
Notice The following observation data may not be complete
May 13 04:35   10 Clear CLR          %              
May 13 03:35 Calm 10 Clear CLR 30 25     80%     30.05        
May 12 17:35 ESE 5 10 Clear CLR 59 18     20%     30.11        
May 12 13:35 ESE 8 10 Clear CLR 61        %     30.13        
May 12 08:35 E 5 10 Clear CLR 45 21     39% 42   30.17        
May 12 07:55 Calm 10 Clear CLR 39 25     56%     30.16        
May 12 07:15 Calm 10 Clear CLR 34 23     64%     30.16        
May 12 02:55 Calm 10 Clear CLR 28 19     69%     30.12        
May 11 22:55 Calm 10 Clear CLR 36 14     41%     30.11        
May 11 20:15 E 7 10 Clear CLR 43        % 39   30.07        
May 11 18:55 ESE 9 10 Clear CLR 46        % 42   30.07        
May 11 13:15 E 11 10 Clear CLR 52 16     24%     30.08        
May 11 09:35 E 8 10 Clear CLR 45 25     45% 40   30.12        
Jun 12 05:55 Calm 0.5 Fog VV005 55 52     88%     29.86        
Jun 12 01:55 Calm 7 Clear CLR 57 55     94%     29.8        
Jun 11 22:15 Calm 10 Clear CLR 57 55     94%     29.75        
Jun 11 21:35 Calm 7 Clear CLR 61 55     82%     29.74        
Notice The following observation data may not be complete
Jun 11 20:14   10 Clear CLR          %              
Jun 11 18:15 SE 6 10 Cloudy OVC023 64 57     77%     29.72        
Jun 11 14:15 SSW 3 10 Clear CLR 63 54     72%     29.75        
Jun 10 23:35 W 6 10 Clear CLR 66 52     60%     29.66        
Jun 10 21:55 W 7 10 Clear CLR 72 54     53%   71          
Jun 10 19:35 W 10 10 Clear CLR 81 54     39%   80 29.51        
Notice The following observation data may not be complete
Jun 10 19:15   10 Clear CLR          %              
Jun 10 17:55   10 Clear CLR 84 57     40%   83 29.45        
Jun 10 16:35 WSW 23 10 Partly Cloudy and Windy SCT050 SCT055 88 61     40%   88 29.4        
Jun 10 11:55 SSW 21 10 Clear and Windy CLR 84 61     45%   84 29.37        
Jun 09 22:15 E 8 10 Clear CLR 54 46     77%     29.68        
Jun 09 20:35 E 8 10 Clear CLR 57 48     72%     29.7        
Jun 09 13:55 ESE 8 10 Clear CLR 72 55     57%   71 29.82        
Notice The following observation data may not be complete
Jun 09 10:34   10 Clear CLR          %              
Jun 09 08:55 E 8 10 Clear CLR 63 55     77%     29.89        
Jun 08 23:15 E 5 10 Clear CLR 57 50     77%     29.88        
Jun 08 21:55 Calm 10 Mostly Cloudy BKN090 61 48     63%     29.88        
Jun 08 21:15 Calm 10 Partly Cloudy SCT080 63 48     59%     29.87        
Jun 08 14:35 NNW 11 10 Cloudy BKN050 BKN060 OVC080 75 54     47%   75 29.87        
Jun 08 11:14 NNW 10 10 Clear CLR 73 54     50%   73 29.89        
Jun 08 10:35 NNW 10 10 Partly Cloudy SCT037 72 54     53%   71 29.89        
Jun 07 21:35 SSW 3 10 Light Rain SCT120 66 50     56%     29.98        
Jun 07 13:55 S 7 10 Clear CLR 79 43     28%   78 30.04        
Jun 07 11:55 S 10 10 Clear CLR 75 43     31%   74 30.09        
Jun 07 11:35 SSE 9 7 Clear CLR 73 45     36%   72 30.09        
Jun 06 13:55 SE 3 10 Clear CLR 73 37     27%   72 30.13        
Jun 06 11:35 SSW 7 10 Clear CLR 70 30     23%     30.16        
Jun 06 05:55 Calm 10 Clear CLR 39 36     87%     30.15        
Jun 06 05:35 Calm 10 Clear CLR 41 36     81%     30.14        
Jun 06 01:35 Calm 10 Clear CLR 43 37     81%     30.12        
Jun 05 21:55 E 3 10 Clear CLR 55 36     47%     30.1        
Notice The following observation data may not be complete
Jun 05 20:15   10 Clear CLR          %